Time,TemperatureF,DewpointF,PressureIn,WindDirection,WindDirectionDegrees,WindSpeedMPH,WindSpeedGustMPH,Humidity,HourlyPrecipIn,Conditions,Clouds,dailyrainin,SolarRadiationWatts/m^2,SoftwareType,DateUTC
2013-03-04 00:00:00,17.8,12.1,29.91,NNW,334,0.0,9.0,78,0.00,,CLR,0.00,0.00,VWS V14.01,2013-03-04 05:00:00,
2013-03-04 00:05:00,17.8,12.4,29.92,NNW,334,0.0,9.0,79,0.00,,CLR,0.00,0.00,VWS V14.01,2013-03-04 05:05:00,
2013-03-04 00:10:00,17.8,12.4,29.92,NNW,334,0.0,9.0,79,0.00,,CLR,0.00,0.00,VWS V14.01,2013-03-04 05:10:00,
2013-03-04 00:15:00,17.7,12.3,29.92,NNW,334,0.0,9.0,79,0.00,,CLR,0.00,0.00,VWS V14.01,2013-03-04 05:15:00,
2013-03-04 00:20:00,17.7,12.3,29.92,NNW,334,0.0,9.0,79,0.00,,CLR,0.00,0.00,VWS V14.01,2013-03-04 05:20:00,
2013-03-04 00:25:00,17.7,12.3,29.92,NNW,334,0.0,9.0,79,0.00,,CLR,0.00,0.00,VWS V14.01,2013-03-04 05:25:00,
2013-03-04 00:30:00,17.7,12.3,29.92,NNW,334,0.0,9.0,79,0.00,,CLR,0.00,0.00,VWS V14.01,2013-03-04 05:30:00,
2013-03-04 00:35:00,17.5,12.4,29.92,NNW,334,0.0,9.0,80,0.00,,CLR,0.00,0.00,VWS V14.01,2013-03-04 05:35:00,
2013-03-04 00:40:00,17.5,12.4,29.92,NNW,334,0.0,9.0,80,0.00,,CLR,0.00,0.00,VWS V14.01,2013-03-04 05:40:00,
2013-03-04 00:45:00,17.5,12.4,29.92,NNW,334,0.0,9.0,80,0.00,,CLR,0.00,0.00,VWS V14.01,2013-03-04 05:45:00,
2013-03-04 00:50:00,17.3,12.2,29.91,NNW,334,0.0,9.0,80,0.00,,CLR,0.00,0.00,VWS V14.01,2013-03-04 05:50:00,
2013-03-04 00:55:00,17.3,12.2,29.91,NNW,334,0.0,9.0,80,0.00,,CLR,0.00,0.00,VWS V14.01,2013-03-04 05:55:00,
2013-03-04 01:00:00,17.2,12.1,29.91,NNW,334,0.0,9.0,80,0.00,,CLR,0.00,0.00,VWS V14.01,2013-03-04 06:00:00,
2013-03-04 01:05:00,17.2,12.1,29.91,NNW,334,0.0,9.0,80,0.00,,CLR,0.00,0.00,VWS V14.01,2013-03-04 06:05:00,
2013-03-04 01:10:00,17.0,11.9,29.91,NNW,334,0.0,9.0,80,0.00,,CLR,0.00,0.00,VWS V14.01,2013-03-04 06:10:00,
2013-03-04 01:15:00,17.0,11.9,29.91,NNW,334,0.0,9.0,80,0.00,,CLR,0.00,0.00,VWS V14.01,2013-03-04 06:15:00,
2013-03-04 01:20:00,17.0,12.2,29.91,NNW,334,0.0,9.0,81,0.00,,CLR,0.00,0.00,VWS V14.01,2013-03-04 06:20:00,
2013-03-04 01:25:00,16.9,12.1,29.91,NNW,334,0.0,9.0,81,0.00,,CLR,0.00,0.00,VWS V14.01,2013-03-04 06:25:00,
2013-03-04 01:30:00,16.9,12.1,29.91,NNW,334,0.0,9.0,81,0.00,,CLR,0.00,0.00,VWS V14.01,2013-03-04 06:30:00,
2013-03-04 01:35:00,16.7,11.9,29.91,NNW,334,0.0,9.0,81,0.00,,CLR,0.00,0.00,VWS V14.01,2013-03-04 06:35:00,
2013-03-04 01:40:00,16.7,11.9,29.91,NNW,334,0.0,9.0,81,0.00,,CLR,0.00,0.00,VWS V14.01,2013-03-04 06:40:00,
2013-03-04 01:45:00,16.5,11.7,29.91,NNW,334,0.0,9.0,81,0.00,,CLR,0.00,0.00,VWS V14.01,2013-03-04 06:45:00,
2013-03-04 01:50:00,16.5,11.7,29.91,NNW,334,0.0,9.0,81,0.00,,CLR,0.00,0.00,VWS V14.01,2013-03-04 06:50:00,
2013-03-04 01:55:00,16.4,11.6,29.91,NNW,334,0.0,9.0,81,0.00,,CLR,0.00,0.00,VWS V14.01,2013-03-04 06:55:00,
2013-03-04 02:00:00,16.4,11.6,29.91,NNW,334,0.0,9.0,81,0.00,,CLR,0.00,0.00,VWS V14.01,2013-03-04 07:00:00,
2013-03-04 02:05:00,16.2,11.4,29.91,NNW,334,0.0,9.0,81,0.00,,CLR,0.00,0.00,VWS V14.01,2013-03-04 07:05:00,
2013-03-04 02:10:00,16.2,11.4,29.91,NNW,334,0.0,9.0,81,0.00,,CLR,0.00,0.00,VWS V14.01,2013-03-04 07:10:00,
2013-03-04 02:15:00,16.1,11.3,29.91,NNW,334,0.0,9.0,81,0.00,,CLR,0.00,0.00,VWS V14.01,2013-03-04 07:15:00,
2013-03-04 02:20:00,16.1,11.3,29.91,NNW,334,0.0,9.0,81,0.00,,CLR,0.00,0.00,VWS V14.01,2013-03-04 07:20:00,
2013-03-04 02:25:00,15.9,11.1,29.91,NNW,334,0.0,9.0,81,0.00,,CLR,0.00,0.00,VWS V14.01,2013-03-04 07:25:00,
2013-03-04 02:30:00,15.7,10.9,29.91,NNW,334,0.0,9.0,81,0.00,,CLR,0.00,0.00,VWS V14.01,2013-03-04 07:30:00,
2013-03-04 02:35:00,15.7,11.2,29.92,NNW,334,0.0,9.0,82,0.00,,CLR,0.00,0.00,VWS V14.01,2013-03-04 07:35:00,
2013-03-04 02:40:00,15.7,11.2,29.92,NNW,334,0.0,9.0,82,0.00,,CLR,0.00,0.00,VWS V14.01,2013-03-04 07:40:00,
2013-03-04 02:45:00,15.7,11.2,29.92,NNW,334,0.0,9.0,82,0.00,,CLR,0.00,0.00,VWS V14.01,2013-03-04 07:45:00,
2013-03-04 02:50:00,15.9,11.4,29.92,NNW,334,0.0,9.0,82,0.00,,CLR,0.00,0.00,VWS V14.01,2013-03-04 07:50:00,
2013-03-04 02:55:00,15.9,11.4,29.92,NNW,334,0.0,9.0,82,0.00,,CLR,0.00,0.00,VWS V14.01,2013-03-04 07:55:00,
2013-03-04 03:00:00,15.9,11.7,29.92,NNW,334,0.0,9.0,83,0.00,,CLR,0.00,0.00,VWS V14.01,2013-03-04 08:00:00,
2013-03-04 03:05:00,15.9,11.7,29.92,NNW,334,0.0,9.0,83,0.00,,CLR,0.00,0.00,VWS V14.01,2013-03-04 08:05:00,
2013-03-04 03:10:00,15.9,11.7,29.92,NNW,334,0.0,9.0,83,0.00,,CLR,0.00,0.00,VWS V14.01,2013-03-04 08:10:00,
2013-03-04 03:15:00,15.9,11.7,29.92,NNW,334,0.0,9.0,83,0.00,,CLR,0.00,0.00,VWS V14.01,2013-03-04 08:15:00,
2013-03-04 03:20:00,15.9,11.7,29.92,NNW,334,0.0,9.0,83,0.00,,CLR,0.00,0.00,VWS V14.01,2013-03-04 08:20:00,
2013-03-04 03:25:00,15.9,11.9,29.92,NNW,334,0.0,9.0,84,0.00,,CLR,0.00,0.00,VWS V14.01,2013-03-04 08:25:00,
2013-03-04 03:30:00,16.1,12.1,29.92,NNW,334,0.0,9.0,84,0.00,,CLR,0.00,0.00,VWS V14.01,2013-03-04 08:30:00,
2013-03-04 03:35:00,16.1,12.1,29.92,NNW,334,0.0,9.0,84,0.00,,CLR,0.00,0.00,VWS V14.01,2013-03-04 08:35:00,
2013-03-04 03:40:00,16.1,12.1,29.92,NNW,334,0.0,9.0,84,0.00,,CLR,0.00,0.00,VWS V14.01,2013-03-04 08:40:00,
2013-03-04 03:45:00,15.9,11.9,29.92,NNW,334,0.0,9.0,84,0.00,,CLR,0.00,0.00,VWS V14.01,2013-03-04 08:45:00,
2013-03-04 03:50:00,15.9,11.9,29.92,NNW,334,0.0,9.0,84,0.00,,CLR,0.00,0.00,VWS V14.01,2013-03-04 08:50:00,
2013-03-04 03:55:00,15.9,11.9,29.92,NNW,334,0.0,9.0,84,0.00,,CLR,0.00,0.00,VWS V14.01,2013-03-04 08:55:00,
2013-03-04 04:00:00,15.7,11.7,29.92,NNW,334,0.0,9.0,84,0.00,,CLR,0.00,0.00,VWS V14.01,2013-03-04 09:00:00,
2013-03-04 04:05:00,15.7,11.7,29.93,NNW,334,0.0,9.0,84,0.00,,CLR,0.00,0.00,VWS V14.01,2013-03-04 09:05:00,
2013-03-04 04:10:00,15.6,11.6,29.93,NNW,334,0.0,9.0,84,0.00,,CLR,0.00,0.00,VWS V14.01,2013-03-04 09:10:00,
2013-03-04 04:15:00,15.6,11.6,29.93,NNW,334,0.0,9.0,84,0.00,,CLR,0.00,0.00,VWS V14.01,2013-03-04 09:15:00,
2013-03-04 04:20:00,15.6,11.6,29.93,NNW,334,0.0,9.0,84,0.00,,FEW024,0.00,0.00,VWS V14.01,2013-03-04 09:20:00,
2013-03-04 04:25:00,15.6,11.6,29.93,NNW,334,0.0,9.0,84,0.00,,FEW024,0.00,0.00,VWS V14.01,2013-03-04 09:25:00,
2013-03-04 04:30:00,15.6,11.9,29.93,NNW,334,0.0,9.0,85,0.00,,FEW024,0.00,0.00,VWS V14.01,2013-03-04 09:30:00,
2013-03-04 04:35:00,15.6,11.9,29.94,NNW,334,0.0,9.0,85,0.00,,FEW024,0.00,0.00,VWS V14.01,2013-03-04 09:35:00,
2013-03-04 04:40:00,15.7,12.0,29.94,NNW,334,0.0,9.0,85,0.00,,FEW024,0.00,0.00,VWS V14.01,2013-03-04 09:40:00,
2013-03-04 04:45:00,15.7,12.0,29.94,NNW,334,0.0,9.0,85,0.00,,FEW024,0.00,0.00,VWS V14.01,2013-03-04 09:45:00,
2013-03-04 04:50:00,15.9,12.2,29.94,NNW,334,0.0,9.0,85,0.00,,BKN024,0.00,0.00,VWS V14.01,2013-03-04 09:50:00,
2013-03-04 04:55:00,15.9,12.2,29.94,NNW,334,0.0,9.0,85,0.00,,BKN024,0.00,0.00,VWS V14.01,2013-03-04 09:55:00,
2013-03-04 05:00:00,15.9,12.2,29.94,NNW,334,0.0,9.0,85,0.00,,BKN024,0.00,0.00,VWS V14.01,2013-03-04 10:00:00,
2013-03-04 05:05:00,16.1,12.4,29.94,NNW,334,0.0,9.0,85,0.00,,BKN024,0.00,0.00,VWS V14.01,2013-03-04 10:05:00,
2013-03-04 05:10:00,16.1,12.4,29.94,NNW,334,0.0,9.0,85,0.00,,BKN024,0.00,0.00,VWS V14.01,2013-03-04 10:10:00,
2013-03-04 05:15:00,16.1,12.4,29.94,NNW,334,0.0,9.0,85,0.00,,BKN024,0.00,0.00,VWS V14.01,2013-03-04 10:15:00,
2013-03-04 05:20:00,16.2,12.8,29.94,NNW,334,0.0,9.0,86,0.00,,BKN024,0.00,0.00,VWS V14.01,2013-03-04 10:20:00,
2013-03-04 05:25:00,16.2,12.8,29.94,NNW,334,0.0,9.0,86,0.00,,BKN024,0.00,0.00,VWS V14.01,2013-03-04 10:25:00,
2013-03-04 05:30:00,16.2,12.8,29.94,NNW,334,0.0,9.0,86,0.00,,BKN024,0.00,0.00,VWS V14.01,2013-03-04 10:30:00,
2013-03-04 05:35:00,16.2,12.8,29.95,NNW,334,0.0,9.0,86,0.00,,BKN024,0.00,0.00,VWS V14.01,2013-03-04 10:35:00,
2013-03-04 05:40:00,16.2,12.8,29.95,NNW,334,0.0,9.0,86,0.00,,BKN024,0.00,0.00,VWS V14.01,2013-03-04 10:40:00,
2013-03-04 05:45:00,16.2,12.8,29.95,NNW,334,0.0,9.0,86,0.00,,BKN024,0.00,0.00,VWS V14.01,2013-03-04 10:45:00,
2013-03-04 05:50:00,16.2,12.8,29.95,NNW,334,0.0,9.0,86,0.00,,SCT024,0.00,0.00,VWS V14.01,2013-03-04 10:50:00,
2013-03-04 05:55:00,16.1,12.7,29.95,NNW,334,0.0,9.0,86,0.00,,SCT024,0.00,0.00,VWS V14.01,2013-03-04 10:55:00,
2013-03-04 06:00:00,16.1,12.7,29.95,NNW,334,0.0,9.0,86,0.00,,SCT024,0.00,0.00,VWS V14.01,2013-03-04 11:00:00,
2013-03-04 06:05:00,16.1,12.7,29.95,NNW,334,0.0,9.0,86,0.00,,SCT024,0.00,0.00,VWS V14.01,2013-03-04 11:05:00,
2013-03-04 06:10:00,15.9,12.2,29.95,NNW,334,0.0,9.0,85,0.00,,SCT024,0.00,0.00,VWS V14.01,2013-03-04 11:10:00,
2013-03-04 06:15:00,15.9,12.2,29.95,NNW,334,0.0,9.0,85,0.00,,SCT024,0.00,0.00,VWS V14.01,2013-03-04 11:15:00,
2013-03-04 06:20:00,15.7,12.0,29.95,NNW,334,0.0,9.0,85,0.00,,CLR,0.00,0.00,VWS V14.01,2013-03-04 11:20:00,
2013-03-04 06:25:00,15.7,12.0,29.95,NNW,334,0.0,9.0,85,0.00,,CLR,0.00,0.00,VWS V14.01,2013-03-04 11:25:00,
2013-03-04 06:30:00,15.6,11.9,29.95,NNW,334,0.0,9.0,85,0.00,,CLR,0.00,0.00,VWS V14.01,2013-03-04 11:30:00,
2013-03-04 06:35:00,15.4,11.7,29.96,NNW,334,0.0,9.0,85,0.00,,CLR,0.00,0.00,VWS V14.01,2013-03-04 11:35:00,
2013-03-04 06:40:00,15.4,11.7,29.96,NNW,334,0.0,9.0,85,0.00,,CLR,0.00,0.00,VWS V14.01,2013-03-04 11:40:00,
2013-03-04 06:45:00,15.4,11.7,29.96,NNW,334,0.0,9.0,85,0.00,,CLR,0.00,0.00,VWS V14.01,2013-03-04 11:45:00,
2013-03-04 06:50:00,15.2,11.5,29.96,NNW,334,0.0,9.0,85,0.00,,CLR,0.00,0.00,VWS V14.01,2013-03-04 11:50:00,
2013-03-04 06:55:00,15.2,11.5,29.96,NNW,334,0.0,9.0,85,0.00,,CLR,0.00,0.00,VWS V14.01,2013-03-04 11:55:00,
2013-03-04 07:00:00,15.1,11.4,29.96,NNW,334,0.0,9.0,85,0.00,,CLR,0.00,0.00,VWS V14.01,2013-03-04 12:00:00,
2013-03-04 07:05:00,15.1,11.4,29.96,NNW,334,0.0,9.0,85,0.00,,CLR,0.00,0.00,VWS V14.01,2013-03-04 12:05:00,
2013-03-04 07:10:00,14.9,11.2,29.96,NNW,334,0.0,9.0,85,0.00,,CLR,0.00,0.00,VWS V14.01,2013-03-04 12:10:00,
2013-03-04 07:15:00,14.8,11.1,29.96,NNW,334,0.0,9.0,85,0.00,,CLR,0.00,5.00,VWS V14.01,2013-03-04 12:15:00,
2013-03-04 07:20:00,14.8,11.1,29.96,NNW,334,0.0,9.0,85,0.00,,CLR,0.00,11.00,VWS V14.01,2013-03-04 12:20:00,
2013-03-04 07:25:00,14.6,10.9,29.96,NNW,334,0.0,9.0,85,0.00,,CLR,0.00,16.00,VWS V14.01,2013-03-04 12:25:00,
2013-03-04 07:30:00,14.6,10.9,29.96,NNW,334,0.0,9.0,85,0.00,,CLR,0.00,23.00,VWS V14.01,2013-03-04 12:30:00,
2013-03-04 07:35:00,14.6,10.9,29.96,NNW,334,0.0,9.0,85,0.00,,CLR,0.00,28.00,VWS V14.01,2013-03-04 12:35:00,
2013-03-04 07:40:00,14.4,10.7,29.96,NNW,334,0.0,9.0,85,0.00,,CLR,0.00,33.00,VWS V14.01,2013-03-04 12:40:00,
2013-03-04 07:45:00,14.4,10.7,29.96,NNW,334,0.0,9.0,85,0.00,,CLR,0.00,39.00,VWS V14.01,2013-03-04 12:45:00,
2013-03-04 07:50:00,14.6,10.9,29.96,NNW,334,0.0,9.0,85,0.00,,CLR,0.00,46.00,VWS V14.01,2013-03-04 12:50:00,
2013-03-04 07:55:00,14.6,11.2,29.96,NNW,334,0.0,9.0,86,0.00,,CLR,0.00,51.00,VWS V14.01,2013-03-04 12:55:00,
2013-03-04 08:00:00,14.9,11.5,29.96,NNW,334,0.0,9.0,86,0.00,,CLR,0.00,56.00,VWS V14.01,2013-03-04 13:00:00,
2013-03-04 08:05:00,15.1,11.7,29.96,NNW,334,0.0,9.0,86,0.00,,CLR,0.00,65.00,VWS V14.01,2013-03-04 13:05:00,
2013-03-04 08:10:00,15.4,12.2,29.96,NNW,334,0.0,9.0,87,0.00,,CLR,0.00,69.00,VWS V14.01,2013-03-04 13:10:00,
2013-03-04 08:15:00,15.7,12.5,29.96,NNW,334,0.0,9.0,87,0.00,,CLR,0.00,74.00,VWS V14.01,2013-03-04 13:15:00,
2013-03-04 08:20:00,16.1,12.9,29.96,NNW,334,0.0,9.0,87,0.00,,CLR,0.00,72.00,VWS V14.01,2013-03-04 13:20:00,
2013-03-04 08:25:00,16.5,13.6,29.96,NNW,334,0.0,9.0,88,0.00,,CLR,0.00,76.00,VWS V14.01,2013-03-04 13:25:00,
2013-03-04 08:30:00,17.0,14.1,29.96,NNW,334,0.0,9.0,88,0.00,,CLR,0.00,79.00,VWS V14.01,2013-03-04 13:30:00,
2013-03-04 08:35:00,17.3,14.4,29.96,NNW,334,0.0,9.0,88,0.00,,CLR,0.00,88.00,VWS V14.01,2013-03-04 13:35:00,
2013-03-04 08:40:00,17.8,14.9,29.96,NNW,334,0.0,9.0,88,0.00,,CLR,0.00,95.00,VWS V14.01,2013-03-04 13:40:00,
2013-03-04 08:45:00,18.4,15.7,29.96,NNW,334,0.0,9.0,89,0.00,,CLR,0.00,105.00,VWS V14.01,2013-03-04 13:45:00,
2013-03-04 08:50:00,18.9,16.2,29.96,NNW,334,0.0,9.0,89,0.00,,CLR,0.00,98.00,VWS V14.01,2013-03-04 13:50:00,
2013-03-04 08:55:00,19.2,16.5,29.96,NNW,334,0.0,9.0,89,0.00,,CLR,0.00,109.00,VWS V14.01,2013-03-04 13:55:00,
2013-03-04 08:59:00,19.7,17.0,29.96,NNW,334,0.0,9.0,89,0.00,,CLR,0.00,130.00,VWS V14.01,2013-03-04 13:59:00,
2013-03-04 09:00:00,16.1,12.9,29.96,NNW,334,0.0,9.0,87,0.00,,OVC041,0.00,72.00,VWS V14.01,2013-03-04 14:00:00,
2013-03-04 09:04:00,20.2,17.5,29.96,NNW,334,0.0,9.0,89,0.00,,CLR,0.00,139.00,VWS V14.01,2013-03-04 14:04:00,
2013-03-04 09:09:00,20.6,17.9,29.96,NNW,334,0.0,9.0,89,0.00,,CLR,0.00,128.00,VWS V14.01,2013-03-04 14:09:00,
2013-03-04 09:14:00,21.1,18.4,29.96,NNW,334,0.0,9.0,89,0.00,,CLR,0.00,172.00,VWS V14.01,2013-03-04 14:14:00,
2013-03-04 09:19:00,21.8,19.1,29.96,NNW,334,0.0,9.0,89,0.00,,CLR,0.00,197.00,VWS V14.01,2013-03-04 14:19:00,
2013-03-04 09:24:00,22.2,19.5,29.96,NNW,334,0.0,9.0,89,0.00,,CLR,0.00,221.00,VWS V14.01,2013-03-04 14:24:00,
2013-03-04 09:29:00,22.7,19.7,29.96,NNW,334,0.0,9.0,88,0.00,,CLR,0.00,257.00,VWS V14.01,2013-03-04 14:29:00,
2013-03-04 09:30:00,18.9,16.2,29.96,NNW,334,0.0,9.0,89,0.00,,OVC041,0.00,98.00,VWS V14.01,2013-03-04 14:30:00,
2013-03-04 09:34:00,23.5,19.1,29.96,East,97,0.0,9.0,83,0.00,,CLR,0.00,287.00,VWS V14.01,2013-03-04 14:34:00,
2013-03-04 09:39:00,24.1,18.2,29.96,East,99,1.0,9.0,78,0.00,,CLR,0.00,308.00,VWS V14.01,2013-03-04 14:39:00,
2013-03-04 09:44:00,24.5,17.7,29.96,SE,131,0.0,9.0,75,0.00,,CLR,0.00,304.00,VWS V14.01,2013-03-04 14:44:00,
2013-03-04 09:49:00,24.8,17.7,29.95,SE,134,0.0,9.0,74,0.00,,CLR,0.00,243.00,VWS V14.01,2013-03-04 14:49:00,
2013-03-04 09:54:00,25.0,17.3,29.95,ESE,123,0.0,9.0,72,0.00,,CLR,0.00,285.00,VWS V14.01,2013-03-04 14:54:00,
2013-03-04 09:59:00,25.3,17.5,29.95,ESE,123,0.0,9.0,72,0.00,,CLR,0.00,366.00,VWS V14.01,2013-03-04 14:59:00,
2013-03-04 10:00:00,21.8,19.1,29.96,NNW,334,0.0,9.0,89,0.00,,OVC041,0.00,197.00,VWS V14.01,2013-03-04 15:00:00,
2013-03-04 10:04:00,25.4,16.7,29.95,ENE,61,1.0,9.0,69,0.00,,CLR,0.00,390.00,VWS V14.01,2013-03-04 15:04:00,
2013-03-04 10:09:00,25.8,17.0,29.95,ENE,58,0.0,9.0,69,0.00,,CLR,0.00,352.00,VWS V14.01,2013-03-04 15:09:00,
2013-03-04 10:14:00,25.7,16.3,29.95,ENE,71,0.0,9.0,67,0.00,,CLR,0.00,364.00,VWS V14.01,2013-03-04 15:14:00,
2013-03-04 10:19:00,26.1,16.0,29.95,North,5,0.0,9.0,65,0.00,,CLR,0.00,367.00,VWS V14.01,2013-03-04 15:19:00,
2013-03-04 10:24:00,26.0,15.9,29.95,NE,52,0.0,9.0,65,0.00,,CLR,0.00,376.00,VWS V14.01,2013-03-04 15:24:00,
2013-03-04 10:29:00,26.3,15.8,29.95,East,86,0.0,9.0,64,0.00,,CLR,0.00,385.00,VWS V14.01,2013-03-04 15:29:00,
2013-03-04 10:30:00,24.8,17.7,29.95,SE,134,1.0,9.0,74,0.00,,OVC041,0.00,229.00,VWS V14.01,2013-03-04 15:30:00,
2013-03-04 10:34:00,26.3,15.8,29.95,SE,135,0.0,9.0,64,0.00,,CLR,0.00,385.00,VWS V14.01,2013-03-04 15:34:00,
2013-03-04 10:39:00,26.3,15.8,29.95,SE,144,2.0,9.0,64,0.00,,CLR,0.00,244.00,VWS V14.01,2013-03-04 15:39:00,
2013-03-04 10:44:00,26.6,16.1,29.95,SSE,167,0.0,9.0,64,0.00,,CLR,0.00,197.00,VWS V14.01,2013-03-04 15:44:00,
2013-03-04 10:49:00,26.6,15.4,29.95,SE,132,0.0,9.0,62,0.00,,CLR,0.00,148.00,VWS V14.01,2013-03-04 15:49:00,
2013-03-04 10:54:00,26.6,15.7,29.95,SE,132,1.0,9.0,63,0.00,,CLR,0.00,178.00,VWS V14.01,2013-03-04 15:54:00,
2013-03-04 10:59:00,26.9,16.4,29.95,SSE,165,1.0,9.0,64,0.00,,CLR,0.00,214.00,VWS V14.01,2013-03-04 15:59:00,
2013-03-04 11:00:00,26.1,16.0,29.95,NNW,346,2.0,9.0,65,0.00,,OVC041,0.00,311.00,VWS V14.01,2013-03-04 16:00:00,
2013-03-04 11:04:00,27.0,15.7,29.94,SSE,165,0.0,9.0,62,0.00,,CLR,0.00,343.00,VWS V14.01,2013-03-04 16:04:00,
2013-03-04 11:09:00,27.6,17.0,29.94,SSE,165,0.0,9.0,64,0.00,,CLR,0.00,253.00,VWS V14.01,2013-03-04 16:09:00,
2013-03-04 11:14:00,27.9,16.2,29.94,SSE,165,1.0,9.0,61,0.00,,CLR,0.00,292.00,VWS V14.01,2013-03-04 16:14:00,
2013-03-04 11:19:00,27.9,15.1,29.94,SE,144,1.0,9.0,58,0.00,,CLR,0.00,316.00,VWS V14.01,2013-03-04 16:19:00,
2013-03-04 11:24:00,28.1,16.0,29.94,South,175,0.0,9.0,60,0.00,,CLR,0.00,381.00,VWS V14.01,2013-03-04 16:24:00,
2013-03-04 11:29:00,28.2,14.5,29.94,SSE,148,0.0,9.0,56,0.00,,CLR,0.00,295.00,VWS V14.01,2013-03-04 16:29:00,
2013-03-04 11:30:00,26.6,15.4,29.95,SE,132,0.0,9.0,62,0.00,,OVC041,0.00,148.00,VWS V14.01,2013-03-04 16:30:00,
2013-03-04 11:34:00,28.5,15.2,29.94,NE,41,0.0,9.0,57,0.00,,CLR,0.00,174.00,VWS V14.01,2013-03-04 16:34:00,
2013-03-04 11:39:00,28.4,14.7,29.94,SSE,155,1.0,9.0,56,0.00,,CLR,0.00,350.00,VWS V14.01,2013-03-04 16:39:00,
2013-03-04 11:44:00,29.0,15.7,29.94,SSE,154,0.0,9.0,57,0.00,,CLR,0.00,265.00,VWS V14.01,2013-03-04 16:44:00,
2013-03-04 11:49:00,29.1,15.8,29.93,SE,144,0.0,9.0,57,0.00,,CLR,0.00,353.00,VWS V14.01,2013-03-04 16:49:00,
2013-03-04 11:54:00,29.5,16.2,29.93,ESE,122,0.0,9.0,57,0.00,,CLR,0.00,313.00,VWS V14.01,2013-03-04 16:54:00,
2013-03-04 11:59:00,29.7,15.9,29.93,ESE,117,1.0,9.0,56,0.00,,CLR,0.00,346.00,VWS V14.01,2013-03-04 16:59:00,
2013-03-04 12:00:00,27.9,15.1,29.94,SE,144,1.0,9.0,58,0.00,,OVC041,0.00,316.00,VWS V14.01,2013-03-04 17:00:00,
2013-03-04 12:04:00,29.7,15.5,29.92,SE,129,1.0,9.0,55,0.00,,CLR,0.00,366.00,VWS V14.01,2013-03-04 17:04:00,
2013-03-04 12:09:00,29.8,15.6,29.92,ENE,58,1.0,9.0,55,0.00,,CLR,0.00,334.00,VWS V14.01,2013-03-04 17:09:00,
2013-03-04 12:14:00,30.3,15.2,29.92,ENE,58,0.0,9.0,53,0.00,,CLR,0.00,362.00,VWS V14.01,2013-03-04 17:14:00,
2013-03-04 12:19:00,30.4,15.8,29.92,SE,124,1.0,9.0,54,0.00,,CLR,0.00,348.00,VWS V14.01,2013-03-04 17:19:00,
2013-03-04 12:24:00,30.3,15.2,29.92,SE,130,0.0,9.0,53,0.00,,CLR,0.00,403.00,VWS V14.01,2013-03-04 17:24:00,
2013-03-04 12:29:00,30.9,16.2,29.92,ESE,102,0.0,9.0,54,0.00,,CLR,0.00,434.00,VWS V14.01,2013-03-04 17:29:00,
2013-03-04 12:30:00,29.3,16.4,29.93,SE,146,0.0,9.0,58,0.00,,OVC041,0.00,353.00,VWS V14.01,2013-03-04 17:30:00,
2013-03-04 12:34:00,30.9,15.8,29.92,SE,131,1.0,9.0,53,0.00,,CLR,0.00,376.00,VWS V14.01,2013-03-04 17:34:00,
2013-03-04 12:39:00,31.0,15.9,29.92,NE,43,0.0,9.0,53,0.00,,CLR,0.00,415.00,VWS V14.01,2013-03-04 17:39:00,
2013-03-04 12:44:00,31.3,16.2,29.92,NE,44,1.0,9.0,53,0.00,,CLR,0.00,396.00,VWS V14.01,2013-03-04 17:44:00,
2013-03-04 12:49:00,31.5,15.0,29.91,NE,49,0.0,9.0,50,0.00,,CLR,0.00,408.00,VWS V14.01,2013-03-04 17:49:00,
2013-03-04 12:54:00,31.9,16.7,29.91,East,90,0.0,9.0,53,0.00,,CLR,0.00,364.00,VWS V14.01,2013-03-04 17:54:00,
2013-03-04 12:59:00,31.9,16.3,29.91,ENE,61,0.0,9.0,52,0.00,,CLR,0.00,408.00,VWS V14.01,2013-03-04 17:59:00,
2013-03-04 13:00:00,30.4,15.8,29.92,SE,125,3.0,9.0,54,0.00,,OVC041,0.00,359.00,VWS V14.01,2013-03-04 18:00:00,
2013-03-04 13:04:00,32.1,15.6,29.91,ENE,67,0.0,9.0,50,0.00,,CLR,0.00,424.00,VWS V14.01,2013-03-04 18:04:00,
2013-03-04 13:09:00,32.1,16.5,29.91,ESE,119,0.0,9.0,52,0.00,,CLR,0.00,394.00,VWS V14.01,2013-03-04 18:09:00,
2013-03-04 13:14:00,31.9,16.3,29.91,NW,325,1.0,9.0,52,0.00,,CLR,0.00,350.00,VWS V14.01,2013-03-04 18:14:00,
2013-03-04 13:19:00,32.1,16.5,29.89,ESE,115,4.0,9.0,52,0.00,,CLR,0.00,313.00,VWS V14.01,2013-03-04 18:19:00,
2013-03-04 13:24:00,31.9,16.7,29.89,NNE,32,2.0,9.0,53,0.00,,CLR,0.00,355.00,VWS V14.01,2013-03-04 18:24:00,
2013-03-04 13:29:00,32.1,16.0,29.89,East,94,0.0,9.0,51,0.00,,CLR,0.00,429.00,VWS V14.01,2013-03-04 18:29:00,
2013-03-04 13:30:00,31.5,15.5,29.91,NE,49,0.0,9.0,51,0.00,,OVC041,0.00,394.00,VWS V14.01,2013-03-04 18:30:00,
2013-03-04 13:34:00,32.7,16.1,29.89,SSE,152,2.0,9.0,50,0.00,,CLR,0.00,411.00,VWS V14.01,2013-03-04 18:34:00,
2013-03-04 13:39:00,32.5,15.9,29.89,SE,125,1.0,9.0,50,0.00,,CLR,0.00,399.00,VWS V14.01,2013-03-04 18:39:00,
2013-03-04 13:44:00,32.9,16.3,29.89,ENE,65,1.0,9.0,50,0.00,,CLR,0.00,408.00,VWS V14.01,2013-03-04 18:44:00,
2013-03-04 13:49:00,33.1,16.0,29.89,ENE,67,0.0,9.0,49,0.00,,CLR,0.00,404.00,VWS V14.01,2013-03-04 18:49:00,
2013-03-04 13:54:00,33.1,17.4,29.89,ENE,61,0.0,9.0,52,0.00,,CLR,0.00,410.00,VWS V14.01,2013-03-04 18:54:00,
2013-03-04 13:59:00,33.2,16.1,29.89,SE,125,0.0,9.0,49,0.00,,CLR,0.00,397.00,VWS V14.01,2013-03-04 18:59:00,
2013-03-04 14:00:00,32.1,16.5,29.89,SE,132,0.0,9.0,52,0.00,,OVC041,0.00,320.00,VWS V14.01,2013-03-04 19:00:00,
2013-03-04 14:04:00,33.2,17.9,29.88,SSE,167,0.0,9.0,53,0.00,,CLR,0.00,455.00,VWS V14.01,2013-03-04 19:04:00,
2013-03-04 14:09:00,34.0,18.2,29.88,SE,146,4.0,9.0,52,0.00,,CLR,0.00,469.00,VWS V14.01,2013-03-04 19:09:00,
2013-03-04 14:14:00,33.7,18.0,29.88,SSE,157,2.0,9.0,52,0.00,,CLR,0.00,411.00,VWS V14.01,2013-03-04 19:14:00,
2013-03-04 14:19:00,33.5,17.3,29.87,SSE,153,0.0,9.0,51,0.00,,CLR,0.00,355.00,VWS V14.01,2013-03-04 19:19:00,
2013-03-04 14:24:00,33.7,17.0,29.87,NE,36,0.0,9.0,50,0.00,,CLR,0.00,360.00,VWS V14.01,2013-03-04 19:24:00,
2013-03-04 14:29:00,33.7,16.6,29.87,SSE,148,2.0,9.0,49,0.00,,CLR,0.00,332.00,VWS V14.01,2013-03-04 19:29:00,
2013-03-04 14:30:00,33.2,16.6,29.89,SSE,167,1.0,9.0,50,0.00,,OVC041,0.00,411.00,VWS V14.01,2013-03-04 19:30:00,
2013-03-04 14:34:00,33.5,16.4,29.87,SSE,159,4.0,9.0,49,0.00,,CLR,0.00,364.00,VWS V14.01,2013-03-04 19:34:00,
2013-03-04 14:39:00,33.5,16.4,29.87,SSE,151,1.0,9.0,49,0.00,,CLR,0.00,341.00,VWS V14.01,2013-03-04 19:39:00,
2013-03-04 14:44:00,33.8,17.1,29.87,ESE,120,1.0,9.0,50,0.00,,CLR,0.00,343.00,VWS V14.01,2013-03-04 19:44:00,
2013-03-04 14:49:00,34.1,17.4,29.87,SE,132,0.0,9.0,50,0.00,,CLR,0.00,346.00,VWS V14.01,2013-03-04 19:49:00,
2013-03-04 14:54:00,34.4,17.7,29.87,SSE,147,0.0,9.0,50,0.00,,CLR,0.00,397.00,VWS V14.01,2013-03-04 19:54:00,
2013-03-04 14:59:00,34.6,17.4,29.87,SSE,147,2.0,9.0,49,0.00,,CLR,0.00,376.00,VWS V14.01,2013-03-04 19:59:00,
2013-03-04 15:00:00,33.4,16.3,29.87,SSE,153,0.0,9.0,49,0.00,,OVC041,0.00,381.00,VWS V14.01,2013-03-04 20:00:00,
2013-03-04 15:04:00,34.6,16.5,29.87,SE,138,0.0,9.0,47,0.00,,CLR,0.00,429.00,VWS V14.01,2013-03-04 20:04:00,
2013-03-04 15:09:00,34.9,17.2,29.87,SE,126,0.0,9.0,48,0.00,,CLR,0.00,396.00,VWS V14.01,2013-03-04 20:09:00,
2013-03-04 15:14:00,34.7,17.0,29.87,SE,144,0.0,9.0,48,0.00,,CLR,0.00,353.00,VWS V14.01,2013-03-04 20:14:00,
2013-03-04 15:19:00,35.2,17.5,29.86,South,172,0.0,9.0,48,0.00,,CLR,0.00,417.00,VWS V14.01,2013-03-04 20:19:00,
2013-03-04 15:24:00,35.2,17.5,29.86,South,175,1.0,9.0,48,0.00,,CLR,0.00,366.00,VWS V14.01,2013-03-04 20:24:00,
2013-03-04 15:29:00,35.0,17.3,29.86,ESE,117,0.0,9.0,48,0.00,,CLR,0.00,272.00,VWS V14.01,2013-03-04 20:29:00,
2013-03-04 15:30:00,34.3,17.6,29.87,SE,132,0.0,9.0,50,0.00,,OVC041,0.00,338.00,VWS V14.01,2013-03-04 20:30:00,
2013-03-04 15:34:00,35.0,16.8,29.86,SE,132,2.0,9.0,47,0.00,,CLR,0.00,267.00,VWS V14.01,2013-03-04 20:34:00,
2013-03-04 15:39:00,35.0,15.8,29.86,SSE,155,1.0,9.0,45,0.00,,CLR,0.00,306.00,VWS V14.01,2013-03-04 20:39:00,
2013-03-04 15:44:00,34.7,15.6,29.86,SSE,157,1.0,9.0,45,0.00,,CLR,0.00,318.00,VWS V14.01,2013-03-04 20:44:00,
2013-03-04 15:49:00,34.9,16.2,29.86,SE,126,1.0,9.0,46,0.00,,CLR,0.00,297.00,VWS V14.01,2013-03-04 20:49:00,
2013-03-04 15:54:00,34.9,14.1,29.86,SE,139,5.0,9.0,42,0.00,,CLR,0.00,279.00,VWS V14.01,2013-03-04 20:54:00,
2013-03-04 15:59:00,34.7,14.0,29.86,SE,132,1.0,9.0,42,0.00,,CLR,0.00,301.00,VWS V14.01,2013-03-04 20:59:00,
2013-03-04 16:00:00,35.2,17.0,29.86,SSE,161,0.0,9.0,47,0.00,,OVC041,0.00,417.00,VWS V14.01,2013-03-04 21:00:00,
2013-03-04 16:04:00,34.7,14.0,29.86,SE,134,1.0,9.0,42,0.00,,CLR,0.00,271.00,VWS V14.01,2013-03-04 21:04:00,
2013-03-04 16:09:00,34.7,15.0,29.86,SE,146,2.0,9.0,44,0.00,,CLR,0.00,232.00,VWS V14.01,2013-03-04 21:09:00,
2013-03-04 16:14:00,34.6,13.3,29.86,ESE,123,0.0,9.0,41,0.00,,CLR,0.00,204.00,VWS V14.01,2013-03-04 21:14:00,
2013-03-04 16:19:00,34.6,13.3,29.86,SE,126,2.0,9.0,41,0.00,,CLR,0.00,181.00,VWS V14.01,2013-03-04 21:19:00,
2013-03-04 16:24:00,34.6,14.4,29.86,SSE,148,2.0,9.0,43,0.00,,CLR,0.00,174.00,VWS V14.01,2013-03-04 21:24:00,
2013-03-04 16:29:00,34.4,13.1,29.86,SE,132,1.0,9.0,41,0.00,,CLR,0.00,172.00,VWS V14.01,2013-03-04 21:29:00,
2013-03-04 16:30:00,34.9,16.2,29.86,SE,126,0.0,9.0,46,0.00,,OVC041,0.00,279.00,VWS V14.01,2013-03-04 21:30:00,
2013-03-04 16:34:00,34.4,13.7,29.86,SE,144,2.0,9.0,42,0.00,,CLR,0.00,169.00,VWS V14.01,2013-03-04 21:34:00,
2013-03-04 16:39:00,34.4,14.2,29.86,ESE,123,2.0,9.0,43,0.00,,CLR,0.00,162.00,VWS V14.01,2013-03-04 21:39:00,
2013-03-04 16:44:00,34.4,15.8,29.86,SSE,159,1.0,9.0,46,0.00,,CLR,0.00,144.00,VWS V14.01,2013-03-04 21:44:00,
2013-03-04 16:49:00,34.1,15.5,29.86,SE,144,0.0,9.0,46,0.00,,CLR,0.00,127.00,VWS V14.01,2013-03-04 21:49:00,
2013-03-04 16:54:00,34.1,16.5,29.86,SSE,148,0.0,9.0,48,0.00,,CLR,0.00,109.00,VWS V14.01,2013-03-04 21:54:00,
2013-03-04 16:59:00,34.1,16.5,29.86,ESE,123,0.0,9.0,48,0.00,,CLR,0.00,100.00,VWS V14.01,2013-03-04 21:59:00,
2013-03-04 17:00:00,34.6,13.3,29.86,SE,126,1.0,9.0,41,0.00,,OVC041,0.00,178.00,VWS V14.01,2013-03-04 22:00:00,
2013-03-04 17:04:00,34.0,16.4,29.86,SE,133,0.0,9.0,48,0.00,,CLR,0.00,97.00,VWS V14.01,2013-03-04 22:04:00,
2013-03-04 17:09:00,33.8,15.7,29.86,SE,133,0.0,9.0,47,0.00,,OVC100,0.00,91.00,VWS V14.01,2013-03-04 22:09:00,
2013-03-04 17:14:00,33.8,16.2,29.86,SE,132,1.0,9.0,48,0.00,,OVC100,0.00,84.00,VWS V14.01,2013-03-04 22:14:00,
2013-03-04 17:19:00,33.8,16.7,29.86,SE,129,2.0,9.0,49,0.00,,OVC100,0.00,74.00,VWS V14.01,2013-03-04 22:19:00,
2013-03-04 17:24:00,33.7,16.6,29.86,SE,129,0.0,9.0,49,0.00,,OVC100,0.00,67.00,VWS V14.01,2013-03-04 22:24:00,
2013-03-04 17:29:00,33.7,16.6,29.86,SE,129,0.0,9.0,49,0.00,,OVC100,0.00,60.00,VWS V14.01,2013-03-04 22:29:00,
2013-03-04 17:30:00,34.1,16.0,29.86,SE,144,0.0,9.0,47,0.00,,OVC041,0.00,125.00,VWS V14.01,2013-03-04 22:30:00,
2013-03-04 17:34:00,33.7,16.6,29.85,SSE,155,1.0,9.0,49,0.00,,OVC100,0.00,53.00,VWS V14.01,2013-03-04 22:34:00,
2013-03-04 17:39:00,33.5,16.4,29.85,ESE,107,0.0,9.0,49,0.00,,OVC100,0.00,47.00,VWS V14.01,2013-03-04 22:39:00,
2013-03-04 17:44:00,33.5,16.9,29.85,ENE,71,0.0,9.0,50,0.00,,OVC100,0.00,44.00,VWS V14.01,2013-03-04 22:44:00,
2013-03-04 17:49:00,33.4,17.2,29.85,SE,136,1.0,9.0,51,0.00,,OVC100,0.00,42.00,VWS V14.01,2013-03-04 22:49:00,
2013-03-04 17:54:00,33.4,17.2,29.85,East,84,1.0,9.0,51,0.00,,OVC100,0.00,42.00,VWS V14.01,2013-03-04 22:54:00,
2013-03-04 17:59:00,33.2,17.0,29.85,ENE,76,3.0,9.0,51,0.00,,OVC100,0.00,33.00,VWS V14.01,2013-03-04 22:59:00,
2013-03-04 18:00:00,33.8,16.7,29.86,SE,129,0.0,9.0,49,0.00,,OVC041,0.00,72.00,VWS V14.01,2013-03-04 23:00:00,
2013-03-04 18:04:00,33.2,17.5,29.84,East,84,0.0,9.0,52,0.00,,OVC100,0.00,26.00,VWS V14.01,2013-03-04 23:04:00,
2013-03-04 18:09:00,33.1,17.8,29.84,East,84,0.0,9.0,53,0.00,,OVC075,0.00,21.00,VWS V14.01,2013-03-04 23:09:00,
2013-03-04 18:14:00,33.1,18.3,29.84,ESE,119,0.0,9.0,54,0.00,,OVC075,0.00,16.00,VWS V14.01,2013-03-04 23:14:00,
2013-03-04 18:19:00,32.9,18.5,29.84,SE,142,0.0,9.0,55,0.00,,OVC075,0.00,11.00,VWS V14.01,2013-03-04 23:19:00,
2013-03-04 18:24:00,32.9,18.5,29.84,ESE,123,0.0,9.0,55,0.00,,OVC075,0.00,9.00,VWS V14.01,2013-03-04 23:24:00,
2013-03-04 18:29:00,32.8,18.8,29.84,SE,124,0.0,9.0,56,0.00,,OVC075,0.00,5.00,VWS V14.01,2013-03-04 23:29:00,
2013-03-04 18:30:00,33.4,17.2,29.85,SE,137,0.0,9.0,51,0.00,,OVC041,0.00,42.00,VWS V14.01,2013-03-04 23:30:00,
2013-03-04 18:34:00,32.7,18.8,29.84,SE,124,0.0,9.0,56,0.00,,OVC075,0.00,0.00,VWS V14.01,2013-03-04 23:34:00,
2013-03-04 18:39:00,32.7,18.8,29.84,SE,124,0.0,9.0,56,0.00,,OVC075,0.00,0.00,VWS V14.01,2013-03-04 23:39:00,
2013-03-04 18:44:00,32.5,18.6,29.84,SE,124,0.0,9.0,56,0.00,,OVC075,0.00,0.00,VWS V14.01,2013-03-04 23:44:00,
2013-03-04 18:49:00,32.5,19.0,29.84,ENE,57,0.0,9.0,57,0.00,,OVC075,0.00,0.00,VWS V14.01,2013-03-04 23:49:00,
2013-03-04 18:54:00,32.4,18.9,29.84,SE,137,0.0,9.0,57,0.00,,OVC075,0.00,0.00,VWS V14.01,2013-03-04 23:54:00,
2013-03-04 18:59:00,32.2,19.1,29.84,SE,136,0.0,9.0,58,0.00,,OVC075,0.00,0.00,VWS V14.01,2013-03-04 23:59:00,
2013-03-04 19:00:00,32.9,18.5,29.84,SE,142,0.0,9.0,55,0.00,,OVC041,0.00,11.00,VWS V14.01,2013-03-05 00:00:00,
2013-03-04 19:04:00,32.1,19.0,29.85,ENE,62,0.0,9.0,58,0.00,,OVC075,0.00,0.00,VWS V14.01,2013-03-05 00:04:00,
2013-03-04 19:09:00,32.1,19.4,29.85,SE,141,0.0,9.0,59,0.00,,OVC080,0.00,0.00,VWS V14.01,2013-03-05 00:09:00,
2013-03-04 19:14:00,31.9,20.0,29.85,SE,136,0.0,9.0,61,0.00,,OVC080,0.00,0.00,VWS V14.01,2013-03-05 00:14:00,
2013-03-04 19:19:00,31.8,19.9,29.85,SE,132,0.0,9.0,61,0.00,,OVC080,0.00,0.00,VWS V14.01,2013-03-05 00:19:00,
2013-03-04 19:24:00,31.8,19.9,29.85,SE,132,1.0,9.0,61,0.00,,OVC080,0.00,0.00,VWS V14.01,2013-03-05 00:24:00,
2013-03-04 19:29:00,31.6,20.1,29.85,SE,132,0.0,9.0,62,0.00,,OVC080,0.00,0.00,VWS V14.01,2013-03-05 00:29:00,
2013-03-04 19:30:00,32.5,19.0,29.84,ENE,57,0.0,9.0,57,0.00,,OVC041,0.00,0.00,VWS V14.01,2013-03-05 00:30:00,
2013-03-04 19:34:00,31.6,20.1,29.85,East,99,1.0,9.0,62,0.00,,OVC080,0.00,0.00,VWS V14.01,2013-03-05 00:34:00,
2013-03-04 19:39:00,31.5,20.0,29.85,ENE,61,1.0,9.0,62,0.00,,OVC080,0.00,0.00,VWS V14.01,2013-03-05 00:39:00,
2013-03-04 19:44:00,31.5,20.0,29.85,East,94,0.0,9.0,62,0.00,,OVC080,0.00,0.00,VWS V14.01,2013-03-05 00:44:00,
2013-03-04 19:49:00,31.5,20.4,29.86,SE,127,0.0,9.0,63,0.00,,OVC080,0.00,0.00,VWS V14.01,2013-03-05 00:49:00,
2013-03-04 19:54:00,31.3,20.2,29.86,SE,132,1.0,9.0,63,0.00,,OVC080,0.00,0.00,VWS V14.01,2013-03-05 00:54:00,
2013-03-04 19:59:00,31.3,20.2,29.86,SE,132,0.0,9.0,63,0.00,,OVC080,0.00,0.00,VWS V14.01,2013-03-05 00:59:00,
2013-03-04 20:00:00,31.8,19.9,29.85,SE,132,0.0,9.0,61,0.00,,OVC041,0.00,0.00,VWS V14.01,2013-03-05 01:00:00,
2013-03-04 20:04:00,31.2,20.1,29.86,SE,127,0.0,9.0,63,0.00,,OVC080,0.00,0.00,VWS V14.01,2013-03-05 01:04:00,
2013-03-04 20:09:00,31.2,20.1,29.86,SE,136,2.0,9.0,63,0.00,,OVC080,0.00,0.00,VWS V14.01,2013-03-05 01:09:00,
2013-03-04 20:14:00,31.2,20.1,29.86,SE,135,0.0,9.0,63,0.00,,OVC055,0.00,0.00,VWS V14.01,2013-03-05 01:14:00,
2013-03-04 20:19:00,31.2,20.1,29.87,SE,135,0.0,9.0,63,0.00,,OVC055,0.00,0.00,VWS V14.01,2013-03-05 01:19:00,
2013-03-04 20:24:00,31.0,19.9,29.87,SE,135,0.0,9.0,63,0.00,,OVC055,0.00,0.00,VWS V14.01,2013-03-05 01:24:00,
2013-03-04 20:29:00,31.0,19.5,29.87,SE,134,0.0,9.0,62,0.00,,OVC055,0.00,0.00,VWS V14.01,2013-03-05 01:29:00,
2013-03-04 20:30:00,31.3,19.8,29.86,SE,127,0.0,9.0,62,0.00,,OVC041,0.00,0.00,VWS V14.01,2013-03-05 01:30:00,
2013-03-04 20:34:00,31.0,19.5,29.86,SE,129,0.0,9.0,62,0.00,,OVC055,0.00,0.00,VWS V14.01,2013-03-05 01:34:00,
2013-03-04 20:39:00,30.9,19.4,29.86,SE,135,0.0,9.0,62,0.00,,OVC055,0.00,0.00,VWS V14.01,2013-03-05 01:39:00,
2013-03-04 20:44:00,30.9,19.8,29.86,SE,127,1.0,9.0,63,0.00,,OVC055,0.00,0.00,VWS V14.01,2013-03-05 01:44:00,
2013-03-04 20:49:00,30.9,19.8,29.87,SSE,159,0.0,9.0,63,0.00,,OVC055,0.00,0.00,VWS V14.01,2013-03-05 01:49:00,
2013-03-04 20:54:00,30.9,19.8,29.87,SSE,159,0.0,9.0,63,0.00,,OVC055,0.00,0.00,VWS V14.01,2013-03-05 01:54:00,
2013-03-04 20:59:00,30.7,19.6,29.87,SE,131,0.0,9.0,63,0.00,,OVC055,0.00,0.00,VWS V14.01,2013-03-05 01:59:00,
2013-03-04 21:00:00,31.0,19.9,29.87,SE,135,0.0,9.0,63,0.00,,OVC041,0.00,0.00,VWS V14.01,2013-03-05 02:00:00,
2013-03-04 21:04:00,30.7,19.6,29.87,SE,133,0.0,9.0,63,0.00,,OVC055,0.00,0.00,VWS V14.01,2013-03-05 02:04:00,
2013-03-04 21:09:00,30.7,20.0,29.87,SE,133,0.0,9.0,64,0.00,,OVC055,0.00,0.00,VWS V14.01,2013-03-05 02:09:00,
2013-03-04 21:14:00,30.7,19.6,29.87,SE,133,0.0,9.0,63,0.00,,OVC055,0.00,0.00,VWS V14.01,2013-03-05 02:14:00,
2013-03-04 21:19:00,30.7,20.0,29.87,SE,133,0.0,9.0,64,0.00,,OVC055,0.00,0.00,VWS V14.01,2013-03-05 02:19:00,
2013-03-04 21:24:00,30.7,19.6,29.87,SE,133,0.0,9.0,63,0.00,,OVC055,0.00,0.00,VWS V14.01,2013-03-05 02:24:00,
2013-03-04 21:29:00,30.7,19.6,29.87,SE,133,0.0,9.0,63,0.00,,OVC055,0.00,0.00,VWS V14.01,2013-03-05 02:29:00,
2013-03-04 21:30:00,30.9,19.8,29.87,SSE,159,0.0,9.0,63,0.00,,OVC041,0.00,0.00,VWS V14.01,2013-03-05 02:30:00,
2013-03-04 21:34:00,30.7,20.0,29.87,SE,132,0.0,9.0,64,0.00,,OVC055,0.00,0.00,VWS V14.01,2013-03-05 02:34:00,
2013-03-04 21:39:00,30.6,19.9,29.87,SE,132,0.0,9.0,64,0.00,,OVC055,0.00,0.00,VWS V14.01,2013-03-05 02:39:00,
2013-03-04 21:44:00,30.6,19.9,29.87,SSE,151,0.0,9.0,64,0.00,,OVC055,0.00,0.00,VWS V14.01,2013-03-05 02:44:00,
2013-03-04 21:49:00,30.6,19.9,29.87,ESE,117,0.0,9.0,64,0.00,,OVC055,0.00,0.00,VWS V14.01,2013-03-05 02:49:00,
2013-03-04 21:54:00,30.6,19.5,29.87,ESE,117,0.0,9.0,63,0.00,,OVC055,0.00,0.00,VWS V14.01,2013-03-05 02:54:00,
2013-03-04 21:59:00,30.6,19.9,29.87,ESE,118,0.0,9.0,64,0.00,,OVC055,0.00,0.00,VWS V14.01,2013-03-05 02:59:00,
2013-03-04 22:00:00,30.7,20.0,29.87,SE,133,0.0,9.0,64,0.00,,OVC041,0.00,0.00,VWS V14.01,2013-03-05 03:00:00,
2013-03-04 22:04:00,30.6,19.5,29.87,ESE,118,2.0,9.0,63,0.00,,OVC055,0.00,0.00,VWS V14.01,2013-03-05 03:04:00,
2013-03-04 22:09:00,30.6,19.5,29.87,SE,142,0.0,9.0,63,0.00,,OVC055,0.00,0.00,VWS V14.01,2013-03-05 03:09:00,
2013-03-04 22:14:00,30.6,19.5,29.87,SE,134,0.0,9.0,63,0.00,,OVC060,0.00,0.00,VWS V14.01,2013-03-05 03:14:00,
2013-03-04 22:19:00,30.6,19.5,29.87,SE,134,1.0,9.0,63,0.00,,OVC060,0.00,0.00,VWS V14.01,2013-03-05 03:19:00,
2013-03-04 22:24:00,30.6,19.5,29.87,SE,134,0.0,9.0,63,0.00,,OVC060,0.00,0.00,VWS V14.01,2013-03-05 03:24:00,
2013-03-04 22:29:00,30.6,19.5,29.87,SE,134,0.0,9.0,63,0.00,,OVC060,0.00,0.00,VWS V14.01,2013-03-05 03:29:00,
2013-03-04 22:30:00,30.6,19.9,29.87,ESE,117,0.0,9.0,64,0.00,,OVC041,0.00,0.00,VWS V14.01,2013-03-05 03:30:00,
2013-03-04 22:34:00,30.6,19.9,29.87,SSE,148,0.0,9.0,64,0.00,,OVC060,0.00,0.00,VWS V14.01,2013-03-05 03:34:00,
2013-03-04 22:39:00,30.6,19.9,29.87,SSE,148,0.0,9.0,64,0.00,,OVC060,0.00,0.00,VWS V14.01,2013-03-05 03:39:00,
2013-03-04 22:44:00,30.6,19.5,29.87,SE,143,1.0,9.0,63,0.00,,OVC060,0.00,0.00,VWS V14.01,2013-03-05 03:44:00,
2013-03-04 22:49:00,30.6,19.5,29.87,SSE,150,0.0,9.0,63,0.00,,OVC060,0.00,0.00,VWS V14.01,2013-03-05 03:49:00,
2013-03-04 22:54:00,30.6,19.9,29.87,SSE,150,0.0,9.0,64,0.00,,OVC060,0.00,0.00,VWS V14.01,2013-03-05 03:54:00,
2013-03-04 22:59:00,30.6,20.2,29.87,SE,136,3.0,9.0,65,0.00,,OVC060,0.00,0.00,VWS V14.01,2013-03-05 03:59:00,
2013-03-04 23:00:00,30.6,19.5,29.87,SE,134,0.0,9.0,63,0.00,,OVC041,0.00,0.00,VWS V14.01,2013-03-05 04:00:00,
2013-03-04 23:04:00,30.6,20.6,29.87,SE,144,0.0,9.0,66,0.00,,OVC060,0.00,0.00,VWS V14.01,2013-03-05 04:04:00,
2013-03-04 23:09:00,30.6,21.3,29.87,SE,140,0.0,9.0,68,0.00,,OVC060,0.00,0.00,VWS V14.01,2013-03-05 04:09:00,
2013-03-04 23:14:00,30.6,21.6,29.87,SE,139,0.0,9.0,69,0.00,,OVC039,0.00,0.00,VWS V14.01,2013-03-05 04:14:00,
2013-03-04 23:19:00,30.4,21.5,29.87,SE,140,0.0,9.0,69,0.00,,OVC039,0.00,0.00,VWS V14.01,2013-03-05 04:19:00,
2013-03-04 23:24:00,30.4,21.5,29.87,SE,139,0.0,9.0,69,0.00,,OVC039,0.00,0.00,VWS V14.01,2013-03-05 04:24:00,
2013-03-04 23:29:00,30.4,21.5,29.87,SE,140,0.0,9.0,69,0.00,,OVC039,0.00,0.00,VWS V14.01,2013-03-05 04:29:00,
2013-03-04 23:30:00,30.6,19.9,29.87,SSE,150,0.0,9.0,64,0.00,,OVC041,0.00,0.00,VWS V14.01,2013-03-05 04:30:00,
2013-03-04 23:34:00,30.4,21.5,29.87,SE,139,0.0,9.0,69,0.00,,OVC039,0.00,0.00,VWS V14.01,2013-03-05 04:34:00,
2013-03-04 23:39:00,30.4,21.5,29.87,SE,140,0.0,9.0,69,0.00,,OVC039,0.00,0.00,VWS V14.01,2013-03-05 04:39:00,
2013-03-04 23:44:00,30.4,21.5,29.87,SE,140,0.0,9.0,69,0.00,,OVC039,0.00,0.00,VWS V14.01,2013-03-05 04:44:00,
2013-03-04 23:49:00,30.4,21.5,29.86,SE,140,0.0,9.0,69,0.00,,OVC039,0.00,0.00,VWS V14.01,2013-03-05 04:49:00,
2013-03-04 23:54:00,30.4,21.5,29.86,SE,139,0.0,9.0,69,0.00,,OVC039,0.00,0.00,VWS V14.01,2013-03-05 04:54:00,
2013-03-04 23:59:00,30.4,21.8,29.86,SE,139,0.0,9.0,70,0.00,,OVC039,0.00,0.00,VWS V14.01,2013-03-05 04:59:00,